Simultaneous Nadir Overpasses (SNOs) Predictions

Prediction of SNOs between LANDSAT-8 and METOP-B Satellite Orbit:

Table of predicted SNOs for the next 14.0 days since TLE Epoch: 8/17/2019
Index Date (LANDSAT-8) Time (LANDSAT-8) Lat,Lon (LANDSAT-8) SZA (LANDSAT-8 ) Date (METOP-B) Time (METOP-B) Lat,Lon (METOP-B) SZA (METOP-B ) Distance(km) Time Diff (sec)
1 08/18/2019 09:59:51 81.17, 70.89 70.14 08/18/2019 09:59:21 81.17, 71.01 70.14 2.16 30
2 08/18/2019 10:49:17 -81.19,-121.16 109.80 08/18/2019 10:50:00 -81.19,-121.05 109.77 1.87 43
3 08/21/2019 05:34:07 81.17, 137.33 71.08 08/21/2019 05:33:43 81.17, 137.41 71.08 1.30 24
4 08/21/2019 06:23:33 -81.19, -54.68 108.86 08/21/2019 06:24:22 -81.19, -54.62 108.84 1.25 49
5 08/24/2019 01:08:22 81.17,-156.23 72.04 08/24/2019 01:08:04 81.17,-156.21 72.03 0.53 18
6 08/24/2019 01:57:48 -81.19, 11.77 107.90 08/24/2019 01:58:43 -81.19, 11.81 107.87 0.78 55
7 08/26/2019 20:42:38 81.17, -89.82 73.02 08/26/2019 20:42:26 81.17, -89.84 73.01 0.48 12
8 08/26/2019 21:32:04 -81.19, 78.21 106.91 08/26/2019 21:33:05 -81.19, 78.22 106.89 0.54 61
9 08/29/2019 16:16:54 81.17, -23.42 74.02 08/29/2019 16:16:48 81.17, -23.49 74.01 1.18 6




NCC Satellite Simultaneous Nadir Overpasses (SNOs) Prediction Service
